Weather History for KEWR - March, 2012

Change the Weather History Date:

Friday, March 2, 2012

  Actual Average Record
Temperature  
Mean Temperature 39 °F 38 °F  
Max Temperature 43 °F 46 °F 78 °F (1972)
Min Temperature 35 °F 30 °F 12 °F (1950)
Degree Days  
Heating Degree Days 26 27  
Month to date heating degree days 51 54  
Since 1 July heating degree days 2961 3689  
Cooling Degree Days 0 0  
Month to date cooling degree days 0 0  
Year to date cooling degree days 0 0  
Moisture  
Dew Point 32 °F    
Average Humidity 80    
Maximum Humidity 89    
Minimum Humidity 70    
Precipitation  
Precipitation 0.25 in 0.12 in 1.86 in (2007)
Month to date precipitation 0.31 0.24  
Year to date precipitation 4.53 6.66  
Snow  
Snow 0.00 in 0.30 in 5.30 in (2009)
Month to date snowfall 0.0 0.5  
Since 1 July snowfall 8.8 23.5  
Snow Depth 0.00 in    
Sea Level Pressure  
Sea Level Pressure 30.01 in    
Wind  
Wind Speed 8 mph (East)    
Max Wind Speed 17 mph    
Max Gust Speed 29 mph    
Visibility 9 miles    
Events Rain    
T = Trace of Precipitation, MM = Missing Value Source: NWS Daily Summary

Daily Weather History Graph

Daily Weather History Graph

Search for Another Location

Airport or City:

Trip Planner

Search our weather history database for the weather conditions in past years. The results will help you decide how hot, cold, wet, or windy it might be!

Date:

Astronomy

Mar. 02, 2012 Rise Set
Actual Time 6:28 AM EST 5:49 PM EST
Civil Twilight 6:00 AM EST 6:17 PM EST
Nautical Twilight 5:29 AM EST 6:48 PM EST
Astronomical Twilight 4:57 AM EST 7:20 PM EST
Moon 11:58 AM EST (3/2) 2:17 AM EST (3/2)
Length of Visible Light 12h 16m
Length of Day
11h 21m
Waxing Gibbous, 66% of the Moon is Illuminated
Mar 2
Waxing Gibbous
Mar 8
Full
Mar 14
Last Quarter
Mar 22
New
Mar 30
First Quarter

Hourly Weather History & Observations

Time (EST) Temp. Windchill Dew Point Humidity Pressure Visibility Wind Dir Wind Speed Gust Speed Precip Events Conditions
12:17 AM 37.4 °F 32.8 °F 33.8 °F 87% 29.97 in 10.0 mi NNE 5.8 mph - N/A   Overcast
12:51 AM 37.9 °F 34.4 °F 34.0 °F 86% 29.99 in 10.0 mi NNE 4.6 mph - N/A   Overcast
1:05 AM 37.4 °F 34.9 °F 33.8 °F 87% 29.99 in 10.0 mi NE 3.5 mph - N/A   Overcast
1:29 AM 37.4 °F 32.1 °F 30.2 °F 75% 30.01 in 10.0 mi East 6.9 mph - N/A   Overcast
1:51 AM 37.0 °F 31.6 °F 28.9 °F 73% 30.01 in 10.0 mi ENE 6.9 mph - N/A   Overcast
2:51 AM 37.0 °F 31.6 °F 28.9 °F 73% 30.02 in 10.0 mi East 6.9 mph - N/A   Overcast
3:51 AM 36.0 °F 29.6 °F 28.0 °F 73% 30.04 in 10.0 mi East 8.1 mph - N/A   Overcast
4:51 AM 36.0 °F 30.3 °F 28.0 °F 73% 30.06 in 10.0 mi East 6.9 mph - N/A   Overcast
5:51 AM 35.1 °F 31.0 °F 27.0 °F 72% 30.09 in 10.0 mi ESE 4.6 mph - N/A   Overcast
6:51 AM 35.1 °F 32.2 °F 27.0 °F 72% 30.10 in 10.0 mi ESE 3.5 mph - N/A   Overcast
7:51 AM 35.1 °F 30.1 °F 27.0 °F 72% 30.11 in 10.0 mi East 5.8 mph - N/A   Overcast
8:51 AM 36.0 °F 31.1 °F 27.0 °F 70% 30.12 in 10.0 mi ESE 5.8 mph - N/A   Overcast
9:51 AM 37.0 °F 31.0 °F 28.9 °F 73% 30.12 in 10.0 mi East 8.1 mph - N/A   Overcast
10:51 AM 37.9 °F 33.5 °F 30.0 °F 73% 30.14 in 10.0 mi ESE 5.8 mph - N/A   Overcast
11:51 AM 37.9 °F 35.5 °F 30.9 °F 76% 30.13 in 10.0 mi Variable 3.5 mph - N/A   Overcast
12:51 PM 39.0 °F 33.4 °F 30.9 °F 73% 30.08 in 10.0 mi East 8.1 mph - N/A   Overcast
1:51 PM 39.9 °F 34.5 °F 32.0 °F 73% 30.06 in 10.0 mi SE 8.1 mph - N/A   Overcast
2:51 PM 39.9 °F 35.1 °F 32.0 °F 73% 30.05 in 10.0 mi East 6.9 mph - N/A   Overcast
3:51 PM 39.9 °F 35.8 °F 33.1 °F 77% 30.05 in 10.0 mi ESE 5.8 mph - N/A   Overcast
4:51 PM 39.9 °F 32.9 °F 33.1 °F 77% 30.02 in 10.0 mi East 11.5 mph 18.4 mph N/A   Overcast
5:51 PM 41.0 °F 35.2 °F 34.0 °F 76% 30.02 in 10.0 mi ESE 9.2 mph - N/A   Overcast
6:51 PM 42.8 °F 37.0 °F 35.6 °F 76% 29.99 in 10.0 mi SE 10.4 mph 16.1 mph N/A   Overcast
7:51 PM 42.8 °F 37.5 °F 35.6 °F 76% 29.95 in 10.0 mi SE 9.2 mph 18.4 mph N/A   Overcast
8:51 PM 42.1 °F 35.2 °F 36.0 °F 79% 29.91 in 5.0 mi ESE 12.7 mph 20.7 mph 0.02 in Rain Rain
9:51 PM 42.1 °F 35.2 °F 37.0 °F 82% 29.88 in 6.0 mi ESE 12.7 mph 23.0 mph 0.03 in Rain Light Rain
10:21 PM 42.8 °F 37.0 °F 37.4 °F 81% 29.88 in 5.0 mi ESE 10.4 mph 19.6 mph 0.02 in Rain Rain
10:51 PM 42.8 °F 36.6 °F 39.2 °F 87% 29.85 in 4.0 mi East 11.5 mph 21.9 mph N/A Rain Light Rain
11:25 PM 42.8 °F 38.6 °F 39.2 °F 87% 29.83 in 3.0 mi ESE 6.9 mph - 0.03 in Rain Light Rain
11:51 PM 43.0 °F 37.7 °F 39.9 °F 89% 29.81 in 4.0 mi ESE 9.2 mph - 0.07 in Rain Light Rain